Location: Dalton
(34.7700°N, 84.9700°W)
Time: 01:21:23
(UTC-04:00)

N. Korean satellite - Pass Details

Date: 08 October 2017
Orbit: 459 x 517 km, 97.2° (Epoch: 19 October)

Event Time Altitude Azimuth Distance (km) Brightness Sun altitude
Rises 20:07:35 0° 181° (S) 2,582 10.3 -11.8°
Reaches altitude 10° 20:09:45 10° 188° (S) 1,694 9.4 -12.3°
Maximum altitude 20:13:14 43° 261° (W) 699 7.9 -13.0°
Drops below altitude 10° 20:16:41 10° 334° (NNW) 1,674 9.7 -13.7°
Sets 20:18:49 0° 341° (NNW) 2,548 10.5 -14.1°
